ELECTRON R/B (43691 NORAD) Tracking and Keplerian Element Data

This shows tracking and keplerian element data for the satellite.

Feedback or suggestion? Click here.




ElementValue
Catalog43691
NameELECTRON R/B
Epoch Orbit473
Epoch Day345.22513934
Epoch Year2018
RAAN81.1254
Inclination85.0167
Eccentricity0.0121516
Argument of Perigee101.1545
Mean Anonmoly260.3428
Mean Motion15.97105505
Decay Rate0.00538265
L11 43691U 18088B 18345.22513934 .00538265 -14839-5 55792-3 0 9999
L22 43691 85.0167 81.1254 0121516 101.1545 260.3428 15.97105505 4733

Live tracking and technical data element details for ELECTRON R/B (NORAD 43691). ELECTRON R/B can be tracked NOW for your location showing map with azimuth and elevation plus other details from your city location.

Track the satellite on the map from your city or location and see movement details for azimuth, elevation, latitude, longitude, range, height, and movement on the map or in text.







IsCatalogInMostPopularTable: catalog: 43691, numindb: 50
Update: records affected: 1



GetName: 43691 ELECTRON R/B

Hit Count: updated at: Wed, 23 Jan 2019 03:32:12 GMT